COSMOS 2251 DEB, 35611

Orbit data source: Space-Track

COSMOS 2251 DEB, 35611 is space debris in LEO originally from a launch on Wed, 16 Jun 1993 UTC launched from the Plesetsk Missile And Space Complex (PKMTR). The debris from Iridium 33, an American commercial communications satellite, has been tracked extensively since its accidental collision with the defunct Russian satellite Cosmos 2251 in 2009. This event, occurring at high speed in low Earth orbit (LEO), generated thousands of pieces of space debris, significantly increasing the risk of further collisions. The Iridium 33 debris cloud has impacted space traffic management and orbital debris mitigation strategies, making it a subject of ongoing study in space situational awareness.

Loading next visibility...
Identifier
35611, 1993-036ANE
Orbit
LEO
Country
Flag of CISCIS
Related business
Manufacturer
Unknown
Mission
Spacecraft
Bus & Motor
Unknown
Mass
Unknown
Launch date (UTC)
1993-06-16 (33 years ago)
Launch vehicle
Unknown
Launch site
Plesetsk Missile And Space Complex (PKMTR)
Object type
Payload
Rocket body
Debris
Shape & HBR
Unknown shape, 0.1 m
Radar Cross Section
Small (<0.1 m²)

Expand to show TLE details & history
Last TLE update: 5 days ago

TLE from 5 days ago
0 COSMOS 2251 DEB
1 35611U 93036ANE 26158.35495918  .00010123  00000-0  14072-2 0  9996
2 35611  74.0178 193.4585 0020782 233.3035 126.6231 14.77793339898951
Epoch: 2026-06-07T08:31Z
TLE epoch observation values (Epoch: 2026-06-07T08:31:08.473Z)
Latitude
-0.00001°
Longitude
169.91583°
Altitude
647.676 km
Speed
7.529 km/s
True Right ascension
12h 53m 50s
True Declination
0° 00' 00"
Sunlit
Object was in full shadow at epoch
Visualization orbit readout
Latitude
Unknown
Longitude
Unknown
Altitude
Unknown
Speed
Unknown
Apparent Right ascension
Unknown
Apparent Declination
Unknown
Sunlit
N/A
Visualization observer readout
Local Sidereal Time
01:14:34
Azimuth
Unknown
Elevation
Unknown
Doppler factor
Unknown
Orbital elements
Apogee altitude
648.45 km
Perigee altitude
619.305 km
Semi-major axis
7,012.015 km
Eccentricity
0.00208
Inclination
74.0178°
RAAN
193.4585°
Arg. of periapsis
233.3035°
True anomaly
126.81393°
Mean anomaly
126.6231°
Eccentric anomaly
126.71855°
Mean motion
3.6964 °/min
Orbital period
97.39 mins
BSTAR
0.0014072

Documentation

Showing up to 5 results
|